Tracking 30306 objects as of 25-Apr-2025
HD Live streaming from Space Station
objects crossing your sky now

COSMOS 2491 DEB

Track COSMOS 2491 DEB now!
10-day predictions


NORAD ID: 57550
Int'l Code: 2013-076AM
Perigee: 1,200.0 km
Apogee: 1,557.5 km
Inclination: 82.4 °
Period: 113.2 minutes
Semi major axis: 7749 km
RCS: Unknown
Launch date: December 25, 2013
Source: Commonwealth of Independent States (former USSR) (CIS)
Launch site: PLESETSK MISSILE AND SPACE COMPLEX (PKMTR)

Note: This is SATELLITE DEBRIS
Your satellite tracking list
Your tracking list is empty




NASA's NSSDC Master Catalog

Two Line Element Set (TLE):
1 57550U 13076AM  25106.02432730  .00006009  00000-0  26219-1 0  9990
2 57550  82.4388  20.6529 0230642  11.5472 349.0789 12.72534494 89703
Source of the keplerian elements: AFSPC